Voltar ao catálogo

STARLINK-34080

AtivoComunicaçõesVLEO
NORAD 64116·PAYLOAD·🇺🇸 United States

Lançado May 23, 2025 de Vandenberg Space Force Base

Loading…

Próximas Passagens (próximas 24 horas)

TLE

AtualizadoSource: CelesTrak SupGP

Época: Sep 14, 2026, 21:33 UTC

1 64116C 25110W   26257.89840278  .00033768  00000+0  10851-2 0  2575
2 64116  53.1579 226.2080 0001607  91.7838 321.0250 15.31706702    16

Acompanhe STARLINK-34080 em tempo real com AllMySat

Download on the App Store